timestamp,wind_dir_avg,wind_spd_avg,wind_spd_max_dir,wind_spd_gust,battery_voltage,lat,long
2022-10-29 00:04:00+00:00,318.0,6.05,326.0,7.28,12.49,47.59359,-54.27349
2022-10-29 00:14:00+00:00,321.0,6.91,321.0,8.36,12.41,47.59359,-54.27349
2022-10-29 00:24:00+00:00,319.0,6.33,321.0,7.45,12.41,47.59359,-54.27349
2022-10-29 00:34:00+00:00,320.0,6.52,323.0,7.27,12.41,47.59359,-54.27349
2022-10-29 00:44:00+00:00,321.0,6.34,324.0,7.33,12.41,47.59359,-54.27349
2022-10-29 00:54:00+00:00,315.0,6.49,310.0,7.17,12.41,47.59359,-54.27349
2022-10-29 01:04:00+00:00,317.0,7.06,316.0,7.72,12.41,47.59359,-54.27349
2022-10-29 01:14:00+00:00,324.0,7.94,319.0,9.61,12.41,47.59359,-54.27349
2022-10-29 01:24:00+00:00,325.0,8.0,321.0,9.47,12.41,47.59359,-54.27349
2022-10-29 01:34:00+00:00,327.0,8.66,325.0,11.21,12.41,47.59359,-54.27349
2022-10-29 01:44:00+00:00,327.0,8.33,329.0,9.85,12.41,47.59359,-54.27349
2022-10-29 01:54:00+00:00,327.0,8.4,328.0,11.19,12.41,47.59359,-54.27349
2022-10-29 02:04:00+00:00,326.0,8.05,329.0,9.91,12.41,47.59359,-54.27349
2022-10-29 02:14:00+00:00,325.0,8.23,327.0,9.31,12.41,47.59359,-54.27349
2022-10-29 02:24:00+00:00,323.0,7.49,315.0,8.52,12.41,47.59359,-54.27349
2022-10-29 02:34:00+00:00,317.0,7.32,312.0,8.72,12.41,47.59359,-54.27349
2022-10-29 02:44:00+00:00,320.0,7.5,320.0,8.32,12.41,47.59359,-54.27349
2022-10-29 02:54:00+00:00,311.0,6.08,307.0,6.97,12.41,47.59359,-54.27349
2022-10-29 03:04:00+00:00,307.0,6.69,311.0,8.62,12.41,47.59359,-54.27349
2022-10-29 03:14:00+00:00,304.0,6.14,306.0,6.82,12.41,47.59359,-54.27349
2022-10-29 03:24:00+00:00,313.0,5.86,323.0,7.2,12.41,47.59359,-54.27349
2022-10-29 03:34:00+00:00,311.0,5.89,321.0,6.96,12.41,47.59359,-54.27349
2022-10-29 03:44:00+00:00,306.0,5.87,308.0,6.84,12.41,47.59359,-54.27349
2022-10-29 03:54:00+00:00,317.0,6.72,321.0,8.45,12.41,47.59359,-54.27349
2022-10-29 04:04:00+00:00,309.0,6.82,311.0,8.21,12.41,47.59359,-54.27349
2022-10-29 04:14:01+00:00,304.0,6.39,291.0,7.76,12.41,47.59359,-54.27349
2022-10-29 04:24:01+00:00,308.0,6.54,310.0,7.78,12.41,47.59359,-54.27349
2022-10-29 04:34:01+00:00,310.0,5.6,306.0,6.97,12.41,47.59359,-54.27349
2022-10-29 04:44:01+00:00,306.0,5.43,301.0,7.43,12.41,47.59359,-54.27349
2022-10-29 04:54:01+00:00,301.0,4.54,305.0,5.61,12.41,47.59359,-54.27349
2022-10-29 05:04:01+00:00,315.0,5.29,300.0,7.19,12.41,47.59359,-54.27349
2022-10-29 05:14:01+00:00,311.0,6.36,309.0,8.04,12.33,47.59359,-54.27349
2022-10-29 05:24:01+00:00,297.0,4.58,291.0,6.52,12.33,47.59359,-54.27349
2022-10-29 05:34:01+00:00,308.0,4.38,296.0,5.46,12.33,47.59359,-54.27349
2022-10-29 05:44:01+00:00,309.0,5.51,303.0,6.91,12.33,47.59359,-54.27349
2022-10-29 05:54:01+00:00,301.0,5.71,292.0,6.94,12.33,47.59359,-54.27349
2022-10-29 06:04:01+00:00,305.0,5.37,301.0,7.01,12.33,47.59359,-54.27349
2022-10-29 06:14:00+00:00,295.0,5.66,289.0,9.69,12.33,47.59359,-54.27349
2022-10-29 06:24:00+00:00,295.0,7.31,291.0,8.85,12.33,47.59359,-54.27349
2022-10-29 06:34:00+00:00,285.0,5.77,275.0,6.75,12.33,47.59359,-54.27349
2022-10-29 06:44:00+00:00,290.0,6.73,282.0,7.48,12.33,47.59359,-54.27349
2022-10-29 06:54:00+00:00,295.0,6.43,298.0,7.24,12.33,47.59359,-54.27349
2022-10-29 07:04:00+00:00,298.0,6.31,300.0,7.45,12.33,47.59359,-54.27349
2022-10-29 07:14:01+00:00,288.0,5.41,285.0,6.26,12.25,47.59359,-54.27349
2022-10-29 07:24:01+00:00,282.0,5.13,292.0,6.76,12.25,47.59359,-54.27349
2022-10-29 07:34:01+00:00,273.0,6.55,268.0,7.41,12.25,47.59359,-54.27349
2022-10-29 07:44:01+00:00,282.0,6.29,279.0,7.7,12.25,47.59359,-54.27349
2022-10-29 07:54:01+00:00,265.0,5.31,257.0,6.79,12.25,47.59359,-54.27349
2022-10-29 08:04:01+00:00,260.0,5.29,252.0,6.53,12.25,47.59359,-54.27349
2022-10-29 08:14:01+00:00,261.0,4.89,262.0,5.84,12.25,47.59359,-54.27349
2022-10-29 08:24:01+00:00,262.0,4.31,262.0,6.31,12.25,47.59359,-54.27349
2022-10-29 08:34:01+00:00,265.0,4.43,271.0,6.59,12.25,47.59359,-54.27349
2022-10-29 08:44:01+00:00,255.0,4.25,262.0,6.48,12.25,47.59359,-54.27349
2022-10-29 08:54:01+00:00,234.0,4.41,251.0,6.63,12.25,47.59359,-54.27349
2022-10-29 09:04:01+00:00,258.0,4.49,258.0,5.94,12.25,47.59359,-54.27349
2022-10-29 09:14:01+00:00,263.0,4.01,270.0,4.84,12.25,47.59359,-54.27349
2022-10-29 09:24:01+00:00,252.0,5.75,251.0,7.18,12.25,47.59359,-54.27349
2022-10-29 09:34:01+00:00,258.0,5.64,264.0,6.67,12.25,47.59359,-54.27349
2022-10-29 09:44:01+00:00,255.0,5.01,252.0,5.96,12.25,47.59359,-54.27349
2022-10-29 09:54:01+00:00,245.0,5.67,241.0,6.48,12.25,47.59359,-54.27349
2022-10-29 10:04:01+00:00,239.0,5.61,252.0,6.45,12.25,47.59359,-54.27349
2022-10-29 10:14:00+00:00,255.0,5.75,261.0,8.32,12.25,47.59359,-54.27349
2022-10-29 10:24:00+00:00,247.0,6.58,249.0,7.86,12.25,47.59359,-54.27349
2022-10-29 10:34:00+00:00,243.0,5.21,240.0,6.3,12.25,47.59359,-54.27349
2022-10-29 10:44:00+00:00,235.0,5.47,235.0,6.58,12.25,47.59359,-54.27349
2022-10-29 10:54:00+00:00,238.0,5.86,234.0,6.8,12.25,47.59359,-54.27349
2022-10-29 11:04:00+00:00,225.0,5.33,231.0,6.68,12.25,47.59359,-54.27349
2022-10-29 11:14:00+00:00,241.0,4.58,244.0,6.24,13.92,47.59359,-54.27349
2022-10-29 11:24:00+00:00,237.0,6.19,238.0,6.89,13.92,47.59359,-54.27349
2022-10-29 11:34:00+00:00,245.0,5.62,251.0,6.51,13.92,47.59359,-54.27349
2022-10-29 11:44:00+00:00,245.0,6.7,250.0,8.27,13.92,47.59359,-54.27349
2022-10-29 11:54:00+00:00,237.0,6.53,239.0,7.3,13.92,47.59359,-54.27349
2022-10-29 12:04:00+00:00,231.0,5.41,235.0,6.37,13.92,47.59359,-54.27349
2022-10-29 12:14:00+00:00,227.0,5.68,221.0,7.35,13.6,47.59359,-54.27349
2022-10-29 12:24:00+00:00,226.0,5.93,217.0,7.61,13.6,47.59359,-54.27349
2022-10-29 12:34:00+00:00,239.0,6.74,240.0,7.91,13.6,47.59359,-54.27349
2022-10-29 12:44:00+00:00,235.0,6.58,235.0,7.53,13.6,47.59359,-54.27349
2022-10-29 12:54:00+00:00,252.0,6.02,241.0,8.13,13.6,47.59359,-54.27349
2022-10-29 13:04:00+00:00,245.0,7.24,233.0,8.98,13.6,47.59359,-54.27349
2022-10-29 13:14:00+00:00,244.0,8.1,242.0,8.97,13.84,47.59359,-54.27349
2022-10-29 13:24:00+00:00,241.0,9.2,242.0,10.32,13.84,47.59359,-54.27349
2022-10-29 13:34:00+00:00,243.0,7.95,240.0,8.98,13.84,47.59359,-54.27349
2022-10-29 13:44:00+00:00,236.0,9.45,234.0,10.24,13.84,47.59359,-54.27349
2022-10-29 13:54:00+00:00,240.0,8.36,242.0,9.26,13.84,47.59359,-54.27349
2022-10-29 14:04:00+00:00,228.0,7.12,244.0,8.23,13.84,47.59359,-54.27349
2022-10-29 14:14:01+00:00,253.0,7.43,265.0,8.82,14.48,47.59359,-54.27349
2022-10-29 14:24:01+00:00,250.0,9.39,251.0,10.51,14.48,47.59359,-54.27349
2022-10-29 14:34:01+00:00,254.0,8.54,253.0,9.52,14.48,47.59359,-54.27349
2022-10-29 14:44:01+00:00,274.0,7.85,273.0,9.37,14.48,47.59359,-54.27349
2022-10-29 14:54:01+00:00,272.0,9.11,272.0,10.35,14.48,47.59359,-54.27349
2022-10-29 15:04:01+00:00,266.0,8.13,267.0,8.82,14.48,47.59359,-54.27349
2022-10-29 15:14:00+00:00,267.0,8.67,263.0,9.79,13.6,47.59359,-54.27349
2022-10-29 15:24:00+00:00,248.0,7.48,253.0,9.04,13.6,47.59359,-54.27349
2022-10-29 15:34:00+00:00,243.0,7.98,243.0,9.46,13.6,47.59359,-54.27349
2022-10-29 15:44:00+00:00,256.0,7.99,252.0,9.59,13.6,47.59359,-54.27349
2022-10-29 15:54:00+00:00,269.0,10.06,275.0,11.3,13.6,47.59359,-54.27349
2022-10-29 16:04:00+00:00,264.0,8.17,263.0,9.61,13.6,47.59359,-54.27349
2022-10-29 16:14:00+00:00,253.0,8.32,250.0,9.2,13.68,47.59359,-54.27349
2022-10-29 16:24:00+00:00,254.0,9.67,255.0,11.3,13.68,47.59359,-54.27349
2022-10-29 16:34:00+00:00,256.0,10.01,255.0,11.33,13.68,47.59359,-54.27349
2022-10-29 16:44:00+00:00,248.0,9.44,251.0,10.97,13.68,47.59359,-54.27349
2022-10-29 16:54:00+00:00,252.0,11.01,250.0,11.96,13.68,47.59359,-54.27349
2022-10-29 17:04:00+00:00,250.0,11.35,250.0,12.52,13.68,47.59359,-54.27349
2022-10-29 17:14:01+00:00,266.0,10.62,261.0,11.79,14.08,47.59359,-54.27349
2022-10-29 17:24:01+00:00,262.0,10.21,263.0,10.99,14.08,47.59359,-54.27349
2022-10-29 17:34:01+00:00,252.0,8.71,260.0,10.43,14.08,47.59359,-54.27349
2022-10-29 17:44:01+00:00,254.0,11.21,254.0,12.25,14.08,47.59359,-54.27349
2022-10-29 17:54:01+00:00,244.0,9.84,243.0,11.28,14.08,47.59359,-54.27349
2022-10-29 18:04:01+00:00,247.0,11.27,243.0,12.75,14.08,47.59359,-54.27349
2022-10-29 18:14:01+00:00,251.0,11.01,257.0,12.1,14.32,47.59359,-54.27349
2022-10-29 18:24:01+00:00,252.0,10.44,248.0,11.58,14.32,47.59359,-54.27349
2022-10-29 18:34:01+00:00,252.0,11.52,249.0,13.05,14.32,47.59359,-54.27349
2022-10-29 18:44:01+00:00,254.0,9.23,251.0,10.74,14.32,47.59359,-54.27349
2022-10-29 18:54:01+00:00,250.0,11.8,248.0,14.7,14.32,47.59359,-54.27349
2022-10-29 19:04:01+00:00,249.0,11.86,250.0,13.37,14.32,47.59359,-54.27349
2022-10-29 19:14:00+00:00,247.0,13.06,251.0,14.23,13.76,47.59359,-54.27349
2022-10-29 19:24:00+00:00,263.0,12.17,266.0,14.13,13.76,47.59359,-54.27349
2022-10-29 19:34:00+00:00,262.0,10.29,265.0,11.99,13.76,47.59359,-54.27349
2022-10-29 19:44:00+00:00,248.0,11.33,248.0,12.99,13.76,47.59359,-54.27349
2022-10-29 19:54:00+00:00,250.0,10.96,252.0,12.52,13.76,47.59359,-54.27349
2022-10-29 20:04:00+00:00,243.0,13.13,242.0,14.38,13.76,47.59359,-54.27349
2022-10-29 20:14:01+00:00,246.0,12.5,247.0,13.48,13.68,47.59359,-54.27349
2022-10-29 20:24:01+00:00,255.0,11.44,256.0,13.45,13.68,47.59359,-54.27349
2022-10-29 20:34:01+00:00,251.0,9.13,249.0,10.55,13.68,47.59359,-54.27349
2022-10-29 20:44:01+00:00,250.0,9.51,250.0,11.48,13.68,47.59359,-54.27349
2022-10-29 20:54:01+00:00,243.0,10.74,240.0,11.9,13.68,47.59359,-54.27349
2022-10-29 21:04:01+00:00,241.0,9.12,239.0,12.34,13.68,47.59359,-54.27349
2022-10-29 21:14:00+00:00,239.0,8.68,240.0,11.31,12.81,47.59359,-54.27349
2022-10-29 21:24:00+00:00,239.0,10.5,236.0,12.25,12.81,47.59359,-54.27349
2022-10-29 21:34:00+00:00,242.0,8.78,255.0,10.97,12.81,47.59359,-54.27349
2022-10-29 21:44:00+00:00,241.0,8.97,238.0,10.46,12.81,47.59359,-54.27349
2022-10-29 21:54:00+00:00,244.0,9.8,245.0,10.99,12.81,47.59359,-54.27349
2022-10-29 22:04:00+00:00,251.0,8.57,256.0,10.42,12.81,47.59359,-54.27349
2022-10-29 22:14:00+00:00,244.0,10.18,252.0,12.58,12.57,47.59359,-54.27349
2022-10-29 22:24:00+00:00,246.0,9.79,248.0,11.33,12.57,47.59359,-54.27349
2022-10-29 22:34:00+00:00,248.0,10.13,249.0,11.52,12.57,47.59359,-54.27349
2022-10-29 22:44:00+00:00,254.0,10.21,248.0,11.84,12.57,47.59359,-54.27349
2022-10-29 22:54:00+00:00,240.0,9.67,236.0,11.07,12.57,47.59359,-54.27349
2022-10-29 23:04:00+00:00,240.0,9.39,235.0,10.77,12.57,47.59359,-54.27349
2022-10-29 23:14:00+00:00,243.0,9.98,245.0,11.32,12.49,47.59359,-54.27349
2022-10-29 23:24:00+00:00,250.0,9.71,253.0,10.96,12.49,47.59359,-54.27349
2022-10-29 23:34:00+00:00,246.0,9.46,247.0,10.32,12.49,47.59359,-54.27349
2022-10-29 23:44:00+00:00,255.0,9.45,252.0,10.45,12.49,47.59359,-54.27349
2022-10-29 23:54:00+00:00,256.0,9.91,258.0,11.37,12.49,47.59359,-54.27349
